Regional Weather Roundup
Issued by NWS State College, PA

Home | Current Version | Previous Version | Graphics & Text | Print | Product List | Glossary Off
Versions: 1 2 3 4 5 6 7 8 9 10 11 12 13 14 15 16 17 18 19 20 21 22 23 24 25 26 27 28 29 30 31 32 33 34 35 36 37 38 39 40 41 42 43 44 45 46 47 48 49 50

000
ASUS41 KCTP 261810
RWRCTP

REGIONAL WEATHER ROUNDUP
NATIONAL WEATHER SERVICE STATE COLLEGE PA
100 PM EST FRI DEC 26 2014

Note: "fair" indicates few or no clouds below 12,000 feet with no
significant weather and/or obstructions to visibility.

* = STATION THAT DOES NOT REPORT PRECIPITATION /E.G. RAIN...SNOW...ETC/
    THUNDER OR FOG.

PAZ002>004-007>009-013>016-020>023-029>032-261900-
WESTERN PENNSYLVANIA

CITY           SKY/WX    TMP DP  RH WIND       PRES   REMARKS
ERIE           FAIR      47  31  53 SW15      30.15F
MEADVILLE      FAIR      44  31  60 S15G21    30.15F
FRANKLIN*      FAIR      43  30  61 SW16      30.18F
NEW CASTLE       N/A     46  34  63 SW9       30.20F
BEAVER COUNTY  SUNNY     45  34  65 SW8       30.20F
BUTLER*        FAIR      45  32  61 S9        30.22F
PITTSBURGH INT FAIR      45  32  60 S10       30.20F
PITTSBURGH     FAIR      46  30  53 S10       30.21F
INDIANA*       SUNNY     45  32  61 SW10      30.24F
LATROBE        MOSUNNY   46  34  61 SW12      30.24F
WASHINGTON CO* NOT AVBL
$$

PAZ004>006-010>012-017>019-024>028-033>037-041-042-045-046-049>053-261900-
CENTRAL PENNSYLVANIA

CITY           SKY/WX    TMP DP  RH WIND       PRES   REMARKS
BRADFORD       FAIR      40  28  62 SW10      30.14F
DUBOIS         FAIR      43  30  60 SW9       30.16F
CLEARFIELD     FAIR      43  29  57 SW10      30.19F
JOHNSTOWN      FAIR      42  29  59 SW9       30.18F
ALTOONA        FAIR      42  31  64 S7        30.22F
STATE COLLEGE  SUNNY     45  28  53 CALM      30.21F
WILLIAMSPORT   FAIR      46  28  49 W7        30.21F
SELINSGROVE    FAIR      46  31  55 CALM      30.23F
FT INDIANTOWN  FAIR      46  29  50 W7        30.23F
CAPITAL CITY   FAIR      47  30  51 SW5       30.25F
HARRISBURG     FAIR      46  30  53 NW5       30.24F
YORK           FAIR      48  30  49 W5        30.25F
$$

PAZ038>040-043-044-047-048-054-055-060>062-067>071-261900-
EASTERN PENNSYLVANIA

CITY           SKY/WX    TMP DP  RH WIND       PRES   REMARKS
SCRANTON       FAIR      43  28  55 VRB5      30.20F
MOUNT POCONO   FAIR      41  27  57 NW10      30.16F
ALLENTOWN      FAIR      48  29  47 SW7       30.22F
QUAKERTOWN*    NOT AVBL
READING        FAIR      47  29  49 W5        30.23F
LANCASTER      FAIR      45  31  58 W9        30.24F
COATESVILLE    FAIR      46  32  57 W9        30.25S
POTTSTOWN      FAIR      46  30  53 W8        30.25F
BLUE BELL      FAIR      48  32  53 NW3       30.23F
DOYLESTOWN     FAIR      46  30  53 VRB7      30.22F
WILLOW GROVE   NOT AVBL
NORTH PHILA    FAIR      49  29  46 W7        30.25F
PHILADELPHIA   FAIR      48  30  49 SW10      30.25F
$$


USA.gov is the U.S. government's official web portal to all federal, state and local government web resources and services.